Location: Fuglau
(48.6333°N, 15.5500°E)
Time: 10:24:16
(UTC+00:00)

Cosmos 1703 Rocket - Pass Details

Date: 27 February 2020
Orbit: 606 x 633 km, 82.5° (Epoch: 08 April)

Event Time Altitude Azimuth Distance (km) Brightness Sun altitude
Rises 17:20:32 0° 354° (N) 2,929 7.1 -7.9°
Reaches altitude 10° 17:22:51 10° 0° (N) 2,021 6.2 -8.3°
Maximum altitude 17:27:12 49° 76° (ENE) 816 3.8 -9.0°
Drops below altitude 10° 17:31:33 10° 152° (SSE) 2,013 5.9 -9.7°
Sets 17:33:50 0° 158° (SSE) 2,917 6.8 -10.1°
